Погода в Джикимде

Погода в Джикимде : погода сейчас, прогноз погоды и архив. Всё, что Вы хотите узнать о погоде в Джикимде!

Поиск расширенной информации на нашем сайте:

Другие новости

Новости СМИ2

Главная страница сайта

Новости сайта

03.07.2017

Напоминаем, что на нашем специализированном сайте Метеоцентр.Азия вы можете получить высокодетализированные автоматические прогнозы погоды по пунктам России, СНГ и мира в авиационном формате (включающие направление и скорость ветра, видимость, явления погоды, количество и форму облачности, нижнюю и верхнюю границу облачности).


Погода в Джикимде - сегодня

Время (UTC), дата Ветер
(°,м/с) 
Видим.   Явления Облачность Т
(°С)
Тd
(°С)
f(%) Тe
(°С)
Pmin
(гПа)
dP
(гПа)
Po
(мм)
O2
(г/м3)
Тmin Tmax R s Состояние
почвы
00 17.05.18 тихо ()   20000 м    ясно 
+5 -4 52 +5  1010.8  742  294    -4.2      влажная 
03 17.05.18 тихо ()   20000 м    8/3 600 м верхняя 
[Cu hum|Cs]
+13.8 -2.3 33 +14  1007.7  -2.2  740  284           
06 17.05.18 тихо ()   20000 м    10/6 600 м верхняя 
[Cu hum|Ci ing]
+16.6 -1.7 29 +17  1005.8  -1.8  739  281           
09 17.05.18 230 (ЮЗ) 20000 м    9/6 600 м верхняя 
[Cu hum|Ci ing]
+17 -0.9 30 +18  1004.5  -1.3  738  280           
12 17.05.18 310 (СЗ) 6-6{20}  20000 м    10/10 600 м кучево-дожд. 
[Cb cap]
+10.7 -3.7 36 +9  1006.2  1.3  739  287    +18.1       
15 17.05.18 230 (ЮЗ) 20000 м  {ливн. осадки}  10/10 600 м кучево-дожд. 
[Cb cap]
+8.3 +5.2 81 +8  1008.2  1.9  740  289           
18 17.05.18 тихо ()   20000 м  {ливн. осадки}  6/6 600 м кучево-дожд. 
[Cb cap]
+5.6 +2.7 82 +6  1011.4  2.9  743  293           
21 17.05.18 230 (ЮЗ) 0050 м  туман  ?/?  
[]
+0.6 -0.2 94 +1  1011  -0.9  742  298           
03 18.05.18 200 (Ю) 20000 м    10/0 верхняя 
[Cs]
+13.7 +0.5 40 +14  1004.9  -3.6  738  283           
06 18.05.18 200 (Ю) 20000 м    10/0 средняя, верхняя 
[As trans|Cs]
+16.7 -0.4 31 +18  1003.6  -1.2  737  280           
09 18.05.18 230 (ЮЗ) 20000 м    9/0 верхняя 
[Cs]
+19.2 -0.2 27 +20  1001.3  -2  736  277           
15 18.05.18 тихо ()   20000 м    10/0 верхняя 
[Cs]
+7.9 +1.5 64 +8  1000.9  735  288           
18 18.05.18 230 (ЮЗ) 5{14}  20000 м    4/0 верхняя 
[Ci fib]
+5.6 +0.5 70 +4  1000.8  -0.3  735  290           
21 18.05.18 тихо ()   20000 м  слаб. дождь  10/10 600 м 
[Sc]
+6.1 +2.4 77 +6  1009  741  292           
03 19.05.18 тихо ()   20000 м    9/9 600 м кучево-дожд. 
[Cb cap]
+11.7 +0.3 45 +12  1009  -0.7  741  286           
06 19.05.18 тихо ()   20000 м    10/9 600 м кучево-дожд., верхняя 
[Cb cap|Ci ing]
+13 -1 38 +13  1007  -1.8  740  285           
09 19.05.18 250 (З) 20000 м    10/10 600 м кучево-дожд. 
[Cb cap]
+14.4 -0.1 37 +16  1006.7  -0.2  740  283           
12 19.05.18 230 (ЮЗ) 20000 м    10/10 600 м кучево-дожд. 
[Cb cap]
+11.3 +1.9 52 +12  1008.1  1.3  740  286    +15       
15 19.05.18 тихо ()   20000 м    10/6 600 м средняя 
[Sc|Ac trans]
+9.4 +1.1 56 +9  1011.2  2.8  743  289           
18 19.05.18 тихо ()   20000 м    8/3 600 м средняя 
[Sc|Ac trans]
+7.2 -0.6 58 +7  1012.4  0.9  743  292           
21 19.05.18 200 (Ю) 20000 м    3/3 600 м 
[Sc]
+3.4 +0.8 83 +4  1016.9  4.2  746  297           
00 20.05.18 290 (З) 20000 м    3/3 600 м 
[Cu hum]
+8 +0.2 58 +9  1018.3  1.7  748  293  +2.1        влажная 
03 20.05.18 270 (З) 20000 м    8/8 600 м кучево-дожд. 
[Cb cap]
+10.7 -3.4 37 +11  1017.6  -0.5  747  290           
06 20.05.18 250 (З) 20000 м    6/6 600 м 
[Cu hum]
+14.6 -4.9 26 +16  1016.3  -1  747  286           
09 20.05.18 тихо ()   20000 м    4/3 600 м верхняя 
[Cu hum|Ci fib]
+15 -3.6 27 +15  1015.9  -0.4  746  285           
Время (UTC), дата Ветер
(°,м/с) 
Видим.   Явления Облачность Т
(°С)
Тd
(°С)
f(%) Тe
(°С)
Pmin
(гПа)
dP
(гПа)
Po
(мм)
O2
(г/м3)
Тmin Tmax R s Состояние
почвы

Для получения пояснительной информации подведите курсор к названию столбца.

ПОГОДА в Джикимде - архив

Всё, что Вы хотите узнать о погоде в Джикимде - удобно и подробно!

Выберите нужную дату (начиная с 1 января 2015* года) и нажмите кнопку "Найти".
Будут отображены архивные сводки погоды по пункту Джикимда, начиная с указанной даты.


Отображать данные в формате CSV (для использования в таблицах Excel)


Внимание! Наш архив погоды предназначен исключительно для личного некоммерческого использования в познавательных целях. Если Вам необходимы официальные справки о состоянии погоды (для производственных, юридических, коммерческих и т.п. целей), обращайтесь в органы Росгидромета.

*Примечание: данная дата относится к архиву по метеостанциям СССР (Россия, СНГ, Балтия).
Архив по метеостанциям Зарубежной Европы и Азии (кроме Китая) хранится 10 дней, по другим регионам земного шара (Китай, Африка, Америка, Австралия, Океания) - 1 день.

Джикимда - район местоположения метеостанции


Название, широта, долгота, высота метеостанции:
Джикимда 59°ш. 121.8°д. 170 м над ур. моря [Российская Федерация]

Дополнительная информация

В oтличие oт бoльшинства пoгoдных сайтoв мы публикуем пoдрoбную метеoинфoрмацию в детальнoм прoфессиoнальнoм фoрмате.

Характеристики температуры и влажнoсти вoздуха измеряются на высoте 2 м в тени вдали oт зданий и деревьев.
Скoрoсть ветра измеряется на высoте 10 м (на урoвне рoста челoвека скoрoсть ветра ниже в 1.5-2 раза). Если метеoстанция нахoдится в гoрoде или в лесу, тo скoрoсть ветра занижена на 2-4 м/с пo сравнению с oткрытым местoм. Скoрoсть ветра над акватoриями крупных рек и oзёр, а также на вершинах хoлмoв на 2-5 м/с выше, чем в oбычных услoвиях.
Атмoсфернoе давление в разных тoчках местнoсти мoжет значительнo oтличаться oт давления на метеoстанции, в зависимoсти oт услoвий рельефа (при пoдъёме на 10 м давление пoнижается примернo на 1 мм рт.ст.).